Regional Weather Roundup
Issued by NWS Wakefield, VA

Home | Current Version | Previous Version | Text Only | Print | Product List | Glossary On
Versions: 1 2 3 4 5 6 7 8 9 10 11 12 13 14 15 16 17 18 19 20 21 22 23 24 25 26 27 28 29 30 31 32 33 34 35 36 37 38 39 40 41 42 43 44 45 46 47 48 49 50
000
ASUS41 KAKQ 312013
RWRAKQ

REGIONAL WEATHER ROUNDUP
NATIONAL WEATHER SERVICE WAKEFIELD VA
400 PM EDT MON AUG 31 2015

Note: "fair" indicates few or no clouds below 12,000 feet with no
significant weather and/or obstructions to visibility. * = Denotes
station may not report precipitation (e.g., rain,snow,etc.),
thunder or fog.

VAZ042-051-052>054-056-312100-
NORTHERN VIRGINIA

CITY           SKY/WX    TMP DP  RH WIND       PRES   REMARKS
WASH NATIONAL  PTSUNNY   87  68  52 S9        30.05F
DULLES         PTSUNNY   86  66  51 CALM      30.06F
FORT BELVOIR   MOSUNNY   87  63  45 VRB2      30.05F
QUANTICO       MOSUNNY   84  70  62 S8        30.06F
FREDERICKSBRG* MOSUNNY   89  64  42 SW5       30.05F
STAFFORD*      SUNNY     86  62  43 W6        30.10F
WARRENTON      MOSUNNY   89  64  42 CALM      30.05F
CULPEPER*      SUNNY     85  60  43 CALM      30.06F
MANASSAS*      PTSUNNY   86  64  48 SW5       30.06F
LEESBURG*      PTSUNNY   88  72  58 SW9       30.06F
WINCHESTER     MOSUNNY   90  63  40 S9        30.05F
FRONT ROYAL*   FAIR      88  63  42 CALM      30.05F
LURAY*         CLOUDY    86  55  35 CALM      30.06F
$$

VAZ048-049-060>072-079>083-312100-
CENTRAL AND SOUTH CENTRAL VIRGINIA

CITY           SKY/WX    TMP DP  RH WIND       PRES   REMARKS
RICHMOND       PTSUNNY   84  69  60 S9        30.07S
CHESTERFIELD*  CLOUDY    84  63  48 S12G17    30.09S
PETERSBURG*    LGT RAIN  80  75  84 S6        30.09F
HANOVER        CLOUDY    83  67  58 CALM      30.08F
TAPPAHANNOCK*  MOSUNNY   86  62  44 SW5       30.08S
QUINTON*       MOCLDY    82  71  69 S8        30.08S
CHARLOTTSVILLE PTSUNNY   87  61  41 S6        30.07F
GORDONSVILLE*  FAIR      88  61  40 CALM      30.06F
ORANGE*        SUNNY     88  59  37 NW5       30.08F
LOUISA*        MOSUNNY   88  63  42 S3        30.06F
BUMPASS*       FAIR      86  65  49 SE5       30.07S
FARMVILLE*     CLOUDY    84  65  53 CALM      30.06S
CREWE*         CLOUDY   N/A N/A N/A S6        30.08S
FORT PICKETT*  CLOUDY    80  70  72 SE5       30.09S
CHASE CITY*    MOCLDY    83  70  66 SE5       30.09S
CLARKSVILLE*   CLOUDY    79  68  69 SE3       30.09S
SOUTH HILL*    CLOUDY    76  70  84 SE6       30.15S
LAWRENCEVILLE* CLOUDY    75  72  88 SE5       30.09F
EMPORIA*       CLOUDY    77  72  83 E5        30.11S
$$

VAZ088>098-312100-
SOUTHEAST VIRGINIA

CITY           SKY/WX    TMP DP  RH WIND       PRES   REMARKS
NORFOLK        CLOUDY    77  67  71 SW3       30.10S
VIRGINIA BEACH CLOUDY    79  69  71 S3        30.10S
NORFOLK NAVAL  CLOUDY    77  67  71 SW3       30.12S
WEST POINT*    MOSUNNY   85  65  50 SW9       30.10S
SALUDA*        FAIR      81  71  71 S7        30.08S
NEWPORT NEWS   CLOUDY    79  68  69 S10       30.10S
LANGLEY AFB    CLOUDY    79  66  63 S10       30.09S
FORT EUSTIS    PTSUNNY   79  72  79 SE8       30.08S
WILLIAMSBURG*  MOSUNNY   84  72  65 S8        30.10S
HR EXEC AP*      N/A     75  70  83 S3        30.13R
FRANKLIN*      CLOUDY    75  70  83 SE5       30.11S
WAKEFIELD      CLOUDY    77  69  76 S3        30.10S
$$

VAZ020-022-025-037-045-312100-
WEST CENTRAL AND SOUTHWEST VIRGINIA

CITY           SKY/WX    TMP DP  RH WIND       PRES   REMARKS
STAUNTON*      PTSUNNY   89  55  31 SW5       30.11S
WAYNESBORO*    CLOUDY    86  59  40 NE7       30.10F
HOT SPRINGS VA CLOUDY    72  61  68 NW6       30.23S
LYNCHBURG      MOSUNNY   82  64  54 VRB5      30.10F
DANVILLE       PTSUNNY   83  69  62 E5        30.08F
SOUTH BOSTON*  MOCLDY    83  68  60 SE5       30.08S
MARTINSVILLE   PTSUNNY   87  66  50 E8        30.10F
ROANOKE        MOSUNNY   86  59  39 VRB5      30.10F
BLACKSBURG     CLOUDY    80  60  49 NE7       30.17F
DUBLIN*        PTSUNNY   82  60  46 CALM      30.16F
MARION*        CLOUDY    80  56  43 CALM      30.19F
HILLSVILLE*    PTSUNNY   76  60  56 N7        30.17S
RICHLANDS*     FAIR      79  16   9 CALM      30.19S
WISE*          SUNNY     82  55  39 NE5       30.20F
ABINGDON*      PTSUNNY   83  59  44 CALM      30.16F
$$

MDZ021>025-VAZ099-100-312100-
SOUTHERN MARYLAND AND THE DELMARVA PENINSULA

CITY           SKY/WX    TMP DP  RH WIND       PRES   REMARKS
PATUXENT RIVER MOSUNNY   86  67  52 VRB5      30.06S
BAY BRIDGE APT   N/A     82  64  54 SW7       30.05S
LEONARDTOWN    NOT AVBL
DOVER          CLOUDY    85  66  53 SW14      30.02S
GEORGETOWN     PTSUNNY   84  67  56 SW14      30.06S
EASTON         PTSUNNY   82  68  61 SW9       30.09F
CAMBRIDGE      MOSUNNY   84  66  54 SW5       30.06S
SALISBURY      MOSUNNY   84  66  54 SW10      30.06F
OCEAN CITY     PTSUNNY   87  63  44 W10       30.06F
WALLOPS ISLAND MOSUNNY   84  67  56 SW10      30.08S
ACCOMACK*      PTSUNNY   77  63  61 SW9       30.09S
$$

NCZ012>017-030>032-312100-
NORTH CENTRAL AND EASTERN NORTH CAROLINA

CITY           SKY/WX    TMP DP  RH WIND       PRES   REMARKS
ROANOKE RAPIDS LGT RAIN  73  70  88 CALM      30.09F
RALEIGH        DRIZZLE   73  70  90 NE6       30.09F FOG
ELIZABETH CITY LGT RAIN  74  72  93 SE7       30.12F FOG
AHOSKIE*       MOSUNNY   75  70  84 SE5       30.10S
EDENTON*       CLOUDY    74  71  91 SE9       30.10F
CURRITUCK*     RAIN      74  70  87 CALM      30.12S
KILL DEVIL HLS RAIN      74  67  80 CALM      30.12S
MANTEO         RAIN      72  71  96 E3        30.13S
CAPE HATTERAS  LGT RAIN  76  73  91 S12       30.11F
TARBORO*       CLOUDY    77  70  79 E6        30.09F
GOLDSBORO      PTSUNNY   80  73  77 SE7       30.05F
WASHINGTON     CLOUDY    77  73  86 E8        30.08F
GREENVILLE     CLOUDY    77  73  88 E7        30.10S
NEW BERN       CLOUDY    80  73  79 SE8       30.08F
WILMINGTON     CLOUDY    81  75  82 NE8       30.04F
$$

VAZ048-312100-
ELSEWHERE

CITY           SKY/WX    TMP DP  RH WIND       PRES   REMARKS
HARRISBURG PA  PTSUNNY   83  70  64 VRB7      30.01F
BALTIMORE      CLOUDY    86  64  47 SW6       30.03F
ANNAPOLIS      CLOUDY    83  65  54 SW8       30.04F
ANDREWS AFB    PTSUNNY   87  62  43 W12       30.05F
PHILADELPHIA   PTSUNNY   88  68  51 SW13      30.00F
HENDERSON NC   CLOUDY    76  67  74 E6        30.09F
GREENSBORO     MOSUNNY   81  68  64 E5        30.08F
ROCKY MOUNT    CLOUDY    79  71  76 VRB6      30.08F
$$

VAZ100-312100-
MARINE

STATION/POSITION TIME  TEMP    WIND        PRES    WAVE   SWELL
                       AIR SEA DIR/SP/G            HT/PER HT/PER
                 (UTC) (F)     (DEG/KT/KT) (MB)    (FT/S) (FT/S)
BRANDYWINE LGT   1900   81 76  260/ 11/ 12 1017.4F
CAPE MAY NJ      1900   81 79  260/  3/  4 1017.0F
LEWES DE         1900   85 75  260/  9/ 12 1017.3F
15NM E FENWICK I 1950   80 78  220/ 10/ 12 1017.8F   2/10   2/10
OCEAN-CITY-INLET 1900   81 77  260/ 11/ 14 1017.2F
WACHAPREAGUE VA  1930   81 81              1019.0F
GOOSES REEF MD   2000   82 80  230/  2/  4 1018.7F
COVE POINT MD    1900   82     300/  2/  5 1018.7F
SOLOMONS ISLAND  1900      80                N/A
BISHOPS HEAD MD  1900   79 79  230/ 10/ 12 1017.4F
PINEY POINT MD   1905          260/  3/  4   N/A
POTOMAC MD       2000   82 80  280/  2/  4 1017.1S   1
CAMBRIDGE MD     1900   82 80  260/ 10/ 12 1017.2F
LEWISETTA VA     1900   81 80  270/  9/ 11 1017.8F
RAPPAHANNOCK LGT 1900          210/ 12/ 13 1019.3F
STINGRAY PT      1900   78 80  240/  8/ 10 1019.0F
YORK RVR RNG VA  1900   78     200/  8/ 10 1018.4F
YORKTOWN VA      1900   78 80  250/  6/  7 1018.5F
JAMESTOWN VA     2000   78 82  190/  6/ 10   N/A
DOMINION TERM VA 1900   77     260/  2/  4 1019.3F
KIPTOPEKE VA     1900      79  260/  6/  9   N/A
CHES BAY BRIDGE  1900   76 79  270/  5/  6 1018.9S
CAPE HENRY VA    1900   75     280/  4/  5   N/A
CHESAPEAKE LGHT  1900   76     270/  3/  4 1020.1R
WILLOUBY STN VA  1900   76     260/  3/  5 1020.3F
CAPE HENRY BUOY  1928      78                N/A     2/ 9
1ST LANDING BUOY 2000      79              1019.2R   1/ 5
CAPE CHARLES BUO 1926      78                N/A     2/ 9   2/ 9
OFFSHORE WE BUOY 1911      78                N/A     3/ 9   3/ 9
64NM E OF VA BCH 1950   77 78  190/  6/  8 1019.2R   3/ 9   3/ 9
DUCK PIER NC     1900   76 79  110/  5/  6 1019.0S
44100 DUCK FRF   1924      78                N/A     2/ 9   2/11
44056 DUCK FRF   1911      79                N/A     2/ 9
OREGON INLET NC  1900   76 80  120/  6/  9 1019.9F
HATTERAS NC      1900   76 80  150/ 13/ 18 1019.8R
DIAMOND SHLS NC  1950   78 84  160/  8/ 10 1019.7F   3/10   3/10
CAPE LOOKOUT NC  2000   77     130/  7/  8 1018.2F
$$


USA.gov is the U.S. government's official web portal to all federal, state and local government web resources and services.